Location: Unspecified
(49.2170°N, 0.0000°E)
Time: 05:38:32
(UTC+00:00)

A-11 Canister half - Pass Details

Date: 19 June 2019
Orbit: 1526 x 1683 km, 47.3° (Epoch: 21 July)

Event Time Altitude Azimuth Distance (km) Brightness Sun altitude
Rises 10:01:57 0° 283° (WNW) 4,684 11.2 55.2°
Reaches altitude 10° 10:05:01 10° 280° (W) 3,697 10.8 55.6°
Maximum altitude 10:14:08 64° 202° (SSW) 1,672 10.4 56.7°
Drops below altitude 10° 10:23:22 10° 124° (SE) 3,734 11.7 57.8°
Sets 10:26:29 0° 122° (ESE) 4,734 12.0 58.2°
